INFORMAÇÕES METEOROLÓGICAS
METAR FOR WPDL
ADDS - METARS form results

(0448 UTC 17 July 2019)
Data provider http://aviationweather.gov/metar/data/
 
Forecast for: AMD
Text: TAF AMD WPDL 170006Z 1700/1712 33008KT CAVOK
Forecast period: 0000 to 1000 UTC 17 July 2019
Forecast type: FROM: standard forecast or significant change
Winds: from the NNW (330 degrees) at 9 MPH (8 knots; 4.1 m/s)
Visibility: 6 or more miles 10+ km)
Ceiling: unknown
Clouds: missing
Weather: NSW  (no significant weather)
Text: FM171000 VRB03KT CAVOK
Forecast period: 1000 to 1200 UTC 17 July 2019
Forecast type: FROM: standard forecast or significant change
Winds: variable direction winds at 3 MPH (3 knots; 1.5 m/s)
Visibility: 6 or more miles 10+ km)
Ceiling: unknown
Clouds: missing
Weather: NSW  (no significant weather)

 MAPA DO AEROPORTO

 INFORMAÇÕES DA PISTA
Pista 08 Tamanho da pista 6065 ft Largura da pista 98 ft
Elevação da pista 17 ft Ranhura da pista 201 ft Proa da pista 77
Pista 26 Tamanho da pista 6065 ft Largura da pista 98 ft
Elevação da pista 25 ft Ranhura da pista 0 ft Proa da pista 257

 FREQUÊNCIAS DO AEROPORTO
Tipo APP Nome COMORO APP Frequência 122.9 MHZ
Tipo GND Nome COMORO GND Frequência 133.9 MHZ
Tipo MISC Nome PCL Frequência 125.5 MHZ

 AUXÍLIOS DE NAVEGAÇÃO PRÓXIMOS AO AEROPORTO
Tipo VOR-DME Nome Dili Frequência 113400 KHZ
Tipo NDB Nome Dili Frequência 391 KHZ



Powered by Mercosul Lnhas Aereas